DW4188 Victoria Point QNL AU current weather conditions

sailwx.info

Wind from 012 at 5 knots gusting 5

Air temperature 23.3° C
Dewpoint 15.9° C

Last reported at 2014-Oct-25 10:44 UTC.
Time now 2014-Oct-25 11:58 UTC

Location: S 27°35' E 153°18'.
View on Google Maps.

See reports from other nearby stations

  
Tides and Currents Weather Stations Pressure Air Temp Water Temp Dewpoint Dewpoint Depression Visibility Wind Speed Wind Dir Waves Ship Positions
date/time (UTC)wind fromknots sea level pressurealtimeterstation pressurevisibilityair tempwater tempwave heightnotes
2014-Oct-25 10:44 012 5 gusting 5 23.3
2014-Oct-25 10:35 008 5 gusting 5 23.3
2014-Oct-25 10:17 013 3 gusting 4 23.3
2014-Oct-25 10:08 358 1 gusting 5 23.3
2014-Oct-25 09:50 008 1 gusting 6 22.8
2014-Oct-25 09:41 001 3 gusting 10 22.8
2014-Oct-25 09:32 350 4 gusting 9 22.8
2014-Oct-25 09:23 354 5 gusting 6 22.8
2014-Oct-25 09:14 348 2 gusting 7 22.8
2014-Oct-25 09:05 359 2 gusting 7 22.8
2014-Oct-25 08:38 355 4 gusting 7 23.3
2014-Oct-25 08:20 359 3 gusting 7 23.3
2014-Oct-25 08:11 345 5 gusting 10 23.3
2014-Oct-25 07:53 352 3 gusting 8 23.3
2014-Oct-25 07:44 334 5 gusting 9 23.3
2014-Oct-25 07:35 346 7 gusting 8 23.3
2014-Oct-25 07:17 345 6 gusting 12 23.3
2014-Oct-25 07:08 343 6 gusting 11 23.9
2014-Oct-25 06:59 342 6 gusting 10 23.9
2014-Oct-25 06:50 343 6 gusting 14 24.4
2014-Oct-25 06:41 349 7 gusting 11 25.0
2014-Oct-25 06:32 341 6 gusting 14 25.0
2014-Oct-25 06:14 335 9 gusting 13 25.6
2014-Oct-25 06:05 338 5 gusting 11 26.1
2014-Oct-25 05:47 354 6 gusting 8 26.7
2014-Oct-25 05:38 349 4 gusting 13 26.7
2014-Oct-25 05:20 352 3 gusting 8 27.8
2014-Oct-25 05:02 351 4 gusting 9 27.8
2014-Oct-25 04:53 342 7 gusting 9 27.2
2014-Oct-25 04:44 356 5 gusting 9 27.8
2014-Oct-25 04:35 012 5 gusting 8 28.3
2014-Oct-25 04:17 005 3 gusting 9 28.3
2014-Oct-25 03:59 358 6 gusting 8 28.3
2014-Oct-25 03:50 345 5 gusting 7 28.9
2014-Oct-25 03:41 354 5 gusting 7 28.9
2014-Oct-25 03:32 007 3 gusting 7 28.9
2014-Oct-25 03:23 015 4 gusting 8 28.9
2014-Oct-25 03:14 358 3 gusting 8 28.3
2014-Oct-25 03:05 348 5 gusting 8 28.3
2014-Oct-25 02:47 002 5 gusting 10 28.3
2014-Oct-25 02:20 004 5 gusting 7 27.8
2014-Oct-25 01:53 345 5 gusting 8 27.8
2014-Oct-25 01:44 349 5 gusting 9 27.8
2014-Oct-25 01:35 003 3 gusting 8 27.8
2014-Oct-25 01:26 355 5 gusting 8 27.2
2014-Oct-25 01:17 348 4 gusting 8 27.2
2014-Oct-25 01:08 351 3 gusting 9 27.2
2014-Oct-25 00:59 347 6 gusting 9 27.2
2014-Oct-25 00:50 351 5 gusting 9 27.2
2014-Oct-25 00:23 005 6 gusting 9 26.7
2014-Oct-25 00:14 346 4 gusting 8 26.1
2014-Oct-25 00:05 347 5 gusting 9 26.1
2014-Oct-24 23:47 354 5 gusting 5 26.1
2014-Oct-24 23:38 338 5 gusting 13 25.0
2014-Oct-24 23:29 345 5 gusting 8 25.0
2014-Oct-24 23:20 345 4 gusting 8 25.0
2014-Oct-24 23:11 338 6 gusting 6 25.0
2014-Oct-24 23:02 349 6 gusting 9 24.4
2014-Oct-24 22:53 341 7 gusting 11 24.4
2014-Oct-24 22:44 346 4 gusting 13 24.4
2014-Oct-24 22:17 322 4 gusting 11 23.3
2014-Oct-24 22:08 325 6 gusting 11 23.3
2014-Oct-24 21:59 329 6 gusting 13 23.3
2014-Oct-24 21:50 318 7 gusting 11 23.3
2014-Oct-24 21:23 311 3 gusting 7 22.2
2014-Oct-24 21:14 301 5 gusting 7 21.7
2014-Oct-24 21:05 309 5 gusting 6 21.7
2014-Oct-24 20:56 305 1 gusting 5 21.1
2014-Oct-24 20:47 311 4 gusting 5 20.6
2014-Oct-24 20:38 304 3 gusting 5 20.6
2014-Oct-24 20:29 278 2 gusting 5 20.0
2014-Oct-24 20:20 20.0
2014-Oct-24 19:53 20.6
2014-Oct-24 19:44 20.6
2014-Oct-24 19:35 21.1
2014-Oct-24 19:26 21.1
2014-Oct-24 19:17 20.6
2014-Oct-24 18:59 21.7
2014-Oct-24 18:50 21.7
2014-Oct-24 18:05 20.6
2014-Oct-24 17:38 20.0
2014-Oct-24 17:29 20.6
2014-Oct-24 17:11 20.6
2014-Oct-24 17:02 20.6
2014-Oct-24 16:53 20.6
2014-Oct-24 16:44 257 20.6
2014-Oct-24 16:26 270 0 gusting 2 20.0
2014-Oct-24 16:08 293 20.0
2014-Oct-24 15:59 284 1 gusting 4 20.6
2014-Oct-24 15:41 275 0 gusting 4 20.6
2014-Oct-24 15:32 266 3 gusting 4 20.6
2014-Oct-24 15:23 271 2 gusting 5 20.6
2014-Oct-24 14:56 350 2 gusting 6 21.1
2014-Oct-24 14:47 359 4 gusting 7 21.1
2014-Oct-24 14:11 002 1 gusting 2 21.1
2014-Oct-24 14:02 359 2 gusting 3 21.1
2014-Oct-24 13:53 337 1 gusting 1 21.1
2014-Oct-24 13:26 355 1 gusting 6 21.1
2014-Oct-24 13:08 001 3 gusting 3 21.1
2014-Oct-24 12:50 001 3 gusting 3 21.7
2014-Oct-24 12:41 001 3 gusting 3 21.7
2014-Oct-24 12:32 337 3 gusting 5 21.7
2014-Oct-24 12:23 337 3 gusting 5 21.7
2014-Oct-24 12:14 337 3 gusting 5 21.1
2014-Oct-24 11:47 337 4 gusting 3 21.7
2014-Oct-24 11:20 355 2 gusting 5 21.7
2014-Oct-24 11:11 352 2 gusting 5 21.7
2014-Oct-24 11:02 338 3 gusting 5 21.7
2014-Oct-24 10:53 345 2 gusting 4 21.7
2014-Oct-24 10:44 021 1 gusting 2 21.7
2014-Oct-24 10:35 001 2 gusting 0 21.7
2014-Oct-24 10:26 339 2 gusting 4 21.7
2014-Oct-24 10:17 347 1 gusting 4 22.2
2014-Oct-24 10:08 021 2 gusting 4 22.2
2014-Oct-24 09:59 013 5 gusting 4 22.2
2014-Oct-24 09:50 358 2 gusting 6 22.2
2014-Oct-24 09:41 019 2 gusting 4 22.8
2014-Oct-24 09:32 003 2 gusting 4 22.8
2014-Oct-24 09:23 018 3 gusting 5 22.8
2014-Oct-24 09:14 010 2 gusting 6 22.8
2014-Oct-24 09:05 002 3 gusting 5 22.8
2014-Oct-24 08:56 009 2 gusting 6 23.3
2014-Oct-24 08:47 010 3 gusting 6 23.3
2014-Oct-24 08:29 002 3 gusting 3 22.8
2014-Oct-24 08:20 003 3 gusting 6 23.3
2014-Oct-24 08:02 016 3 gusting 6 23.9
2014-Oct-24 07:53 013 3 gusting 6 23.9
2014-Oct-24 07:44 014 1 gusting 5 24.4
2014-Oct-24 06:50 018 2 gusting 8 25.6
2014-Oct-24 06:41 027 5 gusting 8 25.6
2014-Oct-24 06:32 019 6 gusting 8 26.1
2014-Oct-24 06:05 017 3 gusting 3 26.7
2014-Oct-24 05:56 002 3 gusting 7 26.7
2014-Oct-24 05:38 011 3 gusting 8 27.2
2014-Oct-24 05:29 021 3 gusting 8 27.2
2014-Oct-24 05:11 022 3 gusting 5 27.2
2014-Oct-24 05:02 010 4 gusting 8 27.8
2014-Oct-24 04:44 022 4 gusting 6 27.8
2014-Oct-24 04:26 029 5 gusting 9 27.8
2014-Oct-24 04:17 018 3 gusting 7 27.8
2014-Oct-24 04:08 010 5 gusting 8 27.8
2014-Oct-24 03:59 011 5 gusting 6 28.3
2014-Oct-24 03:41 006 3 gusting 8 28.3
2014-Oct-24 03:14 348 3 gusting 5 28.9
2014-Oct-24 03:05 015 5 gusting 6 28.9
2014-Oct-24 02:56 025 5 gusting 11 28.3
2014-Oct-24 02:38 012 4 gusting 6 28.3
2014-Oct-24 02:20 003 4 gusting 6 28.3
2014-Oct-24 02:11 339 2 gusting 5 28.3
2014-Oct-24 01:53 359 5 gusting 5 27.8
2014-Oct-24 01:44 340 4 gusting 4 27.8
2014-Oct-24 01:26 344 2 gusting 5 28.3
2014-Oct-24 01:17 008 6 gusting 4 27.8
2014-Oct-24 01:08 021 3 gusting 4 28.3
2014-Oct-24 00:59 353 4 gusting 5 28.3
2014-Oct-24 00:50 068 6 gusting 5 27.8
2014-Oct-24 00:41 056 6 gusting 5 27.8
2014-Oct-24 00:32 022 3 gusting 5 27.8
2014-Oct-24 00:23 022 3 gusting 5 27.2
2014-Oct-23 23:56 022 3 gusting 5 26.7
2014-Oct-23 23:47 001 3 gusting 5 26.7
2014-Oct-23 23:38 001 3 gusting 5 26.1
2014-Oct-23 23:29 001 3 gusting 5 26.1
2014-Oct-23 23:11 001 3 gusting 5 26.1
2014-Oct-23 23:02 337 3 gusting 3 25.6
2014-Oct-23 22:44 337 3 gusting 3 25.6
2014-Oct-23 22:35 337 3 gusting 3 25.0
2014-Oct-23 22:26 337 3 gusting 3 25.6
2014-Oct-23 22:17 337 3 gusting 3 25.0
2014-Oct-23 22:08 337 3 gusting 3 25.0
2014-Oct-23 21:59 015 2 gusting 3 24.4
2014-Oct-23 21:50 045 2 gusting 3 23.9
2014-Oct-23 21:41 019 2 gusting 3 23.3
2014-Oct-23 21:32 314 0 gusting 1 23.3
2014-Oct-23 21:23 351 0 gusting 2 23.3
2014-Oct-23 21:14 351 1 gusting 2 22.8
2014-Oct-23 21:05 22.2
2014-Oct-23 20:47 324 0 gusting 3 21.7
2014-Oct-23 20:38 314 0 gusting 2 21.7
2014-Oct-23 20:29 21.7
2014-Oct-23 20:11 21.1
2014-Oct-23 20:02 21.1
2014-Oct-23 19:35 20.6
2014-Oct-23 19:26 20.6
2014-Oct-23 19:17 20.6
2014-Oct-23 19:08 20.6
2014-Oct-23 18:50 270 20.0
2014-Oct-23 18:23 337 20.6
2014-Oct-23 18:14 016 0 gusting 2 20.6
2014-Oct-23 17:56 023 0 gusting 0 20.6
2014-Oct-23 17:38 007 0 gusting 2 20.6
2014-Oct-23 17:20 016 0 gusting 3 21.1
2014-Oct-23 17:11 031 1 gusting 3 20.6
2014-Oct-23 17:02 009 0 gusting 2 20.6
2014-Oct-23 16:53 011 0 gusting 2 20.6
2014-Oct-23 16:44 005 0 gusting 2 20.6
2014-Oct-23 16:35 354 0 gusting 2 20.6
2014-Oct-23 16:26 004 0 gusting 2 20.6
2014-Oct-23 16:17 009 0 gusting 5 20.6
2014-Oct-23 15:59 008 0 gusting 4 20.6
2014-Oct-23 15:50 010 0 gusting 4 20.6
2014-Oct-23 15:41 001 1 gusting 3 20.6
2014-Oct-23 15:32 354 1 gusting 2 20.6
2014-Oct-23 15:05 006 2 gusting 3 20.6
2014-Oct-23 14:47 005 0 gusting 4 21.1
2014-Oct-23 14:38 014 3 gusting 5 21.1
2014-Oct-23 14:29 001 2 gusting 4 20.6
2014-Oct-23 14:02 355 1 gusting 2 20.6
2014-Oct-23 13:53 006 0 gusting 2 21.1
2014-Oct-23 13:44 012 21.1
2014-Oct-23 13:35 001 1 gusting 4 21.1
2014-Oct-23 13:17 352 0 gusting 3 21.1
2014-Oct-23 12:59 21.1
2014-Oct-23 12:50 001 0 gusting 2 21.7
2014-Oct-23 12:41 358 0 gusting 2 21.7
2014-Oct-23 12:32 001 1 gusting 2 21.7
2014-Oct-23 12:23 001 1 gusting 2 21.7
2014-Oct-23 12:14 014 1 gusting 2 21.7
2014-Oct-23 12:05 018 1 gusting 2 21.7
2014-Oct-23 11:56 011 0 gusting 2 22.2
2014-Oct-23 11:47 016 0 gusting 3 22.2
2014-Oct-23 11:38 010 1 gusting 3 21.7
2014-Oct-23 11:29 007 1 gusting 1 22.2
2014-Oct-23 11:20 019 0 gusting 3 22.2
2014-Oct-23 11:11 010 1 gusting 3 22.2
2014-Oct-23 11:02 030 2 gusting 3 22.8